Weather Roundup
Issued by NWS

Home | Current Version | Previous Version | Graphics & Text | Print | Product List | Glossary Off
Versions: 1 2 3 4 5 6 7 8 9 10 11 12 13 14 15 16 17 18 19 20 21 22 23 24 25 26 27 28 29 30 31 32 33 34 35 36 37 38 39 40 41 42 43 44 45 46 47 48 49 50

000
NZUS93 KARX 260910
HRRWXR

CURRENT HOURLY OBSERVATIONS ACROSS
MUCH OF THE UPPER MISSISSIPPI VALLEY
NATIONAL WEATHER SERVICE LA CROSSE WI
400 AM CDT SAT JUL 26 2014


...SOUTHEAST MINNESOTA...


CITY           SKY/WX    TMP DP  RH WIND       PRES   REMARKS
ROCHESTER      CLOUDY    69  67  93 S6        29.85R FOG
ROCHESTER/MAYO CLOUDY    69  67  94 S3        29.84R
WINONA         CLOUDY    70  64  83 CALM      29.81S
AUSTIN         CLOUDY    70  70 100 SW3       29.84R FOG
ALBERT LEA     CLOUDY    72  70  94 CALM      29.84R FOG
DODGE CENTER   CLOUDY    70  70 100 SW6       29.84R FOG
PRESTON        CLOUDY    66  66 100 S6        29.85S FOG
OWATONNA       PTCLDY    72  68  88 CALM      29.83R FOG
FARIBAULT      MOCLDY    73  66  78 CALM      29.82S HAZE
$$

...ELSEWHERE IN MINNESOTA...


CITY           SKY/WX    TMP DP  RH WIND       PRES   REMARKS
MINNEAPOLIS    CLOUDY    74  69  85 W7        29.80S
INTNL FALLS    CLEAR     55  54  96 CALM      29.74S
DULUTH         PTCLDY    70  66  87 NW9       29.77S
RED WING       CLOUDY    72  70  94 S3        29.80S
REDWOOD FALLS  PTCLDY    69  68  96 CALM      29.81F FOG
MANKATO        MOCLDY    72  66  83 W6        29.81F
WORTHINGTON    CLOUDY    72  70  94 N7        29.86F
FAIRMONT       CLOUDY    72  66  83 W5        29.83F
$$

...SOUTHWEST WISCONSIN...


CITY           SKY/WX    TMP DP  RH WIND       PRES   REMARKS
LA CROSSE      CLOUDY    69  65  86 S7        29.82F
PRAIRIE DU CHI CLOUDY    66  62  87 CALM      29.82F
BOSCOBEL       CLOUDY    67  62  84 CALM      29.84F
LONE ROCK      CLOUDY    69  64  84 CALM      29.85F
PLATTEVILLE    MOCLDY    65  63  91 SE7       29.85F
FORT MC COY    CLOUDY    66  63  91 SW5       29.84F
CAMP DOUGLAS   MOCLDY    67  67  99 SW6       29.83F
VIROQUA        CLOUDY    64  64 100 SE5       29.84F
WIS DELLS      CLOUDY    65  60  83 SW7       29.84F
$$

...ELSEWHERE IN WISCONSIN...


CITY           SKY/WX    TMP DP  RH WIND       PRES   REMARKS
MILWAUKEE      PTCLDY    64  59  83 SW3       29.86F
MADISON        CLOUDY    67  61  81 CALM      29.86F
GREEN BAY      CLOUDY    65  62  90 S3        29.82F
EAU CLAIRE     CLOUDY    69  67  93 SW6       29.80F
BLACK RVR FLS  CLOUDY    67  67 100 SW3       29.82F
MEDFORD        DRIZZLE   64  63  97 SW6       29.83S
WAUSAU         CLOUDY    65  62  90 SW3       29.82F
WIS RAPIDS     CLOUDY    66  63  90 SW7       29.84F
MARSHFIELD     CLOUDY    65  63  93 SW5       29.83F
RICE LAKE      CLOUDY    69  67  92 S3        29.82S
$$

...NORTHEAST IOWA...


CITY           SKY/WX    TMP DP  RH WIND       PRES   REMARKS
WATERLOO       CLOUDY    68  65  90 E7        29.81F
DUBUQUE        CLOUDY    66  63  90 CALM      29.85S
DECORAH        CLOUDY    64  64 100 CALM      29.83S FOG
MASON CITY     CLOUDY    70  69  97 S3        29.85R FOG
CHARLES CITY   CLOUDY    68  66  94 SE7       29.82F
OELWEIN        CLOUDY    66  64  94 E5        29.84F
$$

...ELSEWHERE IN IOWA...


CITY           SKY/WX    TMP DP  RH WIND       PRES   REMARKS
DES MOINES     PTCLDY    71  68  90 NE6       29.78F
IOWA CITY      NOT AVBL
FORT DODGE     CLEAR     66  66 100 CALM      29.83R
MARSHALLTOWN   PTCLDY    68  66  93 E7        29.80F
CEDAR RAPIDS   CLOUDY    68  63  84 NE6       29.81F
$$

...NORTHERN ILLINOIS...


CITY           SKY/WX    TMP DP  RH WIND       PRES   REMARKS
CHICAGO-OHARE  MOCLDY    68  57  68 S3        29.86F
DUPAGE         CLOUDY    68  60  75 S9        29.85F
CHICAGO-MIDWAY CLOUDY    70  60  70 SW12      29.86F
MOLINE         PTCLDY    67  62  84 E6        29.81S
ROCKFORD       CLOUDY    68  59  73 S6        29.88F
STERLING       PTCLDY    66  61  82 E5        29.84F
PEORIA         CLOUDY    69  62  78 S10       29.83F
$$

NOTE: "FAIR" INDICATES FEW OR NO CLOUDS BELOW 12,000 FEET WITH NO
SIGNIFICANT WEATHER AND/OR OBSTRUCTIONS TO VISIBILITY. WIND
SPEEDS ARE IN MILES-PER-HOUR.



USA.gov is the U.S. government's official web portal to all federal, state and local government web resources and services.